Regional Weather Roundup
Issued by NWS

Home | Current Version | Previous Version | Graphics & Text | Print | Product List | Glossary On
Versions: 1 2 3 4 5 6 7 8 9 10 11 12 13 14 15 16 17 18 19 20 21 22 23 24 25 26 27 28 29 30 31 32 33 34 35 36 37 38 39 40 41 42 43 44 45 46 47 48 49 50
000
ASUS43 KBIS 311002
RWRND

NORTH DAKOTA REGIONAL WEATHER ROUNDUP
NATIONAL WEATHER SERVICE BISMARCK ND
500 AM CDT TUE MAY 31 2016

NOTE: "FAIR" INDICATES FEW OR NO CLOUDS BELOW 12,000 FEET WITH NO
SIGNIFICANT WEATHER AND/OR OBSTRUCTIONS TO VISIBILITY.


NDZ001>003-009>011-017-311100-
NORTHWEST NORTH DAKOTA

CITY           SKY/WX    TMP DP  RH WIND       PRES   REMARKS
WILLISTON      LGT RAIN  50  48  93 W14       29.76F
MINOT          CLOUDY    57  54  89 NW6       29.70F
MINOT AFB      LGT RAIN  55  55  98 N6        29.69F
$$

NDZ018>021-031>035-040>046-311100-
SOUTHWEST NORTH DAKOTA

CITY           SKY/WX    TMP DP  RH WIND       PRES   REMARKS
BISMARCK       PTCLDY    52  49  89 W13       29.78S
DICKINSON      MOCLDY    43  41  93 W12       29.81F
GARRISON         N/A     52  50  93 W12       29.73F
HETTINGER ARPT CLEAR     45  40  82 W16       29.88S
$$

NDZ004>008-012>016-024-026-027-054-311100-
NORTHEAST NORTH DAKOTA

CITY           SKY/WX    TMP DP  RH WIND       PRES   REMARKS
GRAND FORKS    MOCLDY    60  57  89 SE13      29.67S
GRND FRKS AFB  CLOUDY    59  59 100 S12       29.67F
DEVILS LAKE    LGT RAIN  58  57  97 SE8       29.66F FOG
$$

NDZ022-023-025-028>030-036>039-047>053-311100-
SOUTHEAST NORTH DAKOTA

CITY           SKY/WX    TMP DP  RH WIND       PRES   REMARKS
FARGO          CLOUDY    61  58  90 S10       29.73R
JAMESTOWN      CLOUDY    58  56  93 W13       29.71S
$$





USA.gov is the U.S. government's official web portal to all federal, state and local government web resources and services.